Regional Weather Roundup
Issued by NWS

Home | Current Version | Previous Version | Graphics & Text | Print | Product List | Glossary On
Versions: 1 2 3 4 5 6 7 8 9 10 11 12 13 14 15 16 17 18 19 20 21 22 23 24 25 26 27 28 29 30 31 32 33 34 35 36 37 38 39 40 41 42 43 44 45 46 47 48 49 50
000
ASUS43 KMPX 291810
RWRMN
WEATHER ROUNDUP FOR MINNESOTA
NATIONAL WEATHER SERVICE TWIN CITIES/CHANHASSEN MN
100 PM CDT SUN MAY 29 2016


NOTE: "FAIR" INDICATES FEW OR NO CLOUDS BELOW 12,000 FEET WITH NO
SIGNIFICANT WEATHER AND/OR OBSTRUCTIONS TO VISIBILITY. N/A MEANS
CURRENT SKY AND/OR WEATHER CONDITIONS ARE NOT AVAILABLE.

MNZ060>063-068>070-291900-
   Twin Cities Metro

CITY           SKY/WX    TMP DP  RH WIND       PRES   REMARKS
TWIN CITIES    PTSUNNY   75  57  53 NW14G23   29.96R
6HR MIN TEMP:  63; 6HR MAX TEMP:  75; 6HR PCP: TRACE;

ST PAUL        PTSUNNY   72  57  59 W16       29.96R
CRYSTAL        PTSUNNY   73  56  54 NW13      29.95R
BLAINE         MOSUNNY   72  57  60 W16G25    29.94S
EDEN PRAIRIE   PTSUNNY   73  55  53 W13       29.96R
6HR MIN TEMP:  63; 6HR MAX TEMP:  75; 6HR PCP: TRACE;

SOUTH ST PAUL  MOSUNNY   74  56  53 W13G20    29.96R
LAKE ELMO      FAIR      72  59  64 W12G21    29.97S
$$
MNZ001>005-007-008-013>017-022>024-027-028-291900-
   Northwest Minnesota

CITY           SKY/WX    TMP DP  RH WIND       PRES   REMARKS
BEMIDJI        CLOUDY    62  54  75 W13       29.94R
HALLOCK        CLOUDY    64  55  72 NW12      29.92S
ROSEAU         PTSUNNY   63  57  82 W9        29.90S
WARROAD        CLOUDY    59  55  88 W9        29.90S
THIEF RVR FALL PTSUNNY   63  54  72 W10       29.95S
CROOKSTON      PTSUNNY   64  59  82 NW7       29.95S
FOSSTON        CLOUDY    63  55  77 W12       29.96S
DETROIT LAKES  PTSUNNY   66  55  68 NW15      29.98F
MOORHEAD       MOSUNNY   68  57  68 NW3       29.97S
PARK RAPIDS    CLOUDY    66  56  70 NW12      29.95S
MAHNOMEN       CLOUDY    63  57  82 W8        29.97S
$$
MNZ006-009>011-018-025>026-291900-
   North Central Minnesota

CITY           SKY/WX    TMP DP  RH WIND       PRES   REMARKS
BAUDETTE       CLOUDY    59  54  83 NW10      29.89R
FLAG ISLAND    CLOUDY    55  54  94 W13       29.87S
INTL FALLS     CLOUDY    61  55  81 NW14      29.85S
6HR MIN TEMP:  55; 6HR MAX TEMP:  61; 6HR PCP:  0.04;

WASKISH        CLOUDY    61  55  82 W15       29.91R
BIG FORK       LGT RAIN  61  55  82 NW5       29.89R
LONGVILLE      PTSUNNY   64  55  72 W12G17    29.93S
GRAND RAPIDS   CLOUDY    64  55  72 SW17      29.91R
CRANE LAKE     LGT RAIN  55  55 100 W6        29.86R
ORR            LGT RAIN  57  54  88 W6        29.84R
COOK           RAIN      57  55  94 W12       29.87R
WALKER         CLOUDY    62  54  73 W14       29.94R
$$
MNZ012-019>021-037-291900-
   Northeast Minnesota

CITY           SKY/WX    TMP DP  RH WIND       PRES   REMARKS
DULUTH         CLOUDY    62  55  77 W14G26    29.86R
6HR MIN TEMP:  59; 6HR MAX TEMP:  65; 6HR PCP:  0.01;

ELY            CLOUDY    61  55  82 NW9       29.82R
HIBBING        CLOUDY    62  55  77 W13G21    29.87R
EVELETH        CLOUDY    59  54  82 W14G22    29.88R
DULUTH HARBOR  CLOUDY    66  57  72 W24G30    29.85S
TWO HARBORS      N/A     70  59  68 W9G20     29.81S
SILVER BAY     CLOUDY    66  57  72 SW8       29.79S
GRAND MARAIS     N/A     42  42 100 SW6       29.77R
G MARAIS ARPRT RAIN      59  55  88 W3        29.79R
$$
MNZ029>031-032-039>041-046>048-054>057-064-291900-
   West Central Minnesota

CITY           SKY/WX    TMP DP  RH WIND       PRES   REMARKS
FERGUS FALLS   MOSUNNY   70  57  64 NW16      29.94S
WHEATON        SUNNY     77  57  50 W15       29.99S
MORRIS         MOSUNNY   73  61  64 N6        29.97F
ALEXANDRIA     PTSUNNY   70  57  63 NW14      29.99R
ELBOW LAKE     PTSUNNY   69  57  65 NW9       29.98S
WADENA         MOSUNNY   66  55  68 W13       29.96S
GLENWOOD       MOSUNNY   72  57  60 W10G18    29.99S
APPLETON       PTSUNNY   75  54  46 NW6       29.98F
ORTONVILLE     MOSUNNY   75  54  46 NW13G18   29.99S
MADISON        MOSUNNY   73  55  53 NW9       30.00S
WILLMAR        FAIR      72  61  68 NW13G18   30.01S
$$
MNZ033>034-036-042>043-049>051-058-059-291900-
   Central Minnesota

CITY           SKY/WX    TMP DP  RH WIND       PRES   REMARKS
ST CLOUD       MOSUNNY   73  58  59 W15       29.96R
6HR MIN TEMP:  60; 6HR MAX TEMP:  73;

SAUK CENTRE    CLOUDY    68  57  66 NW10      29.98R
PAYNESVILLE    MOSUNNY   71  57  60 NW9       29.99S
AITKIN         PTSUNNY   70  52  52 W8        29.91R
PINE RIVER     CLOUDY    66  57  72 W9        29.97S
BRAINERD       PTSUNNY   67  56  67 NW13G20   29.95R
STAPLES        MOSUNNY   70  55  60 W13G20    29.96S
LONG PRAIRIE   PTSUNNY   70  55  60 SW10      29.98R
LITTLE FALLS   PTSUNNY   68  54  60 W13G18    29.96S
LITCHFIELD     MOSUNNY   73  61  64 W13       29.99S
BUFFALO        MOSUNNY   72  57  60 W9G16     29.98S
MAPLE LAKE     PTSUNNY   72  60  66 NW8       29.98S
HUTCHINSON     MOSUNNY   73  62  68 W12       30.00S
$$
MNZ037-044-045-052-053-291900-
   East Central Minnesota

CITY           SKY/WX    TMP DP  RH WIND       PRES   REMARKS
PRINCETON      PTSUNNY   72  57  60 W14       29.96S
MORA           PTSUNNY   68  54  60 NW13G22   29.96R
CAMBRIDGE      CLOUDY    70  55  60 W13       29.94R
RUSH CITY      CLOUDY    69  56  63 W8        29.94R
MOOSE LAKE     CLOUDY    68  54  60 W15G23    29.88S
HINCKLEY       CLOUDY    68  55  64 W12G24    29.92S
CLOQUET        LGT RAIN  63  55  77 W13G22    29.88R
MCGREGOR       CLOUDY    66  55  68 W13G22    29.92R
$$
MNZ071>073-080-081-089-090-097-098-291900-
   Southwest Minnesota

CITY           SKY/WX    TMP DP  RH WIND       PRES   REMARKS
MONTEVIDEO     MOSUNNY   77  57  50 N10       30.01S
GRANITE FALLS  PTSUNNY   77  56  48 W13G18    30.01S
CANBY          MOSUNNY   76  59  55 NW12G17   30.02S
MARSHALL       MOSUNNY   74  57  55 W16G23    30.01S
REDWOOD FALLS  PTSUNNY   75  58  55 W13       29.99S
OLIVIA         PTSUNNY   73  61  64 W13G18    29.99S
PIPESTONE      SUNNY     73  55  53 NW10G16   30.06R
WINDOM         CLOUDY    75  55  50 CALM      30.03S
WORTHINGTON    MOSUNNY   73  59  61 W20       30.05S
JACKSON        MOSUNNY   73  54  49 W15G21    30.04F
TRACY          MOSUNNY   74  59  58 W10G18    30.03S
SLAYTON        MOSUNNY   73  54  52 W20       30.05S
$$
MNZ065>067-074>077-082>085-091>093-291900-
   South Central Minnesota

CITY           SKY/WX    TMP DP  RH WIND       PRES   REMARKS
MANKATO        MOSUNNY   73  57  56 W14       30.00S
NEW ULM        MOSUNNY   73  59  60 W12       30.00S
ST JAMES       MOSUNNY   70  54  56 W14G22    30.02S
FAIRMONT       MOSUNNY   75  55  50 W14G21    30.02S
GLENCOE        PTSUNNY   73  64  73 W12G17    29.98S
FARIBAULT      MOSUNNY   73  61  64 W9        29.99S
OWATONNA       MOSUNNY   73  61  64 W16       30.00S
WASECA         PTSUNNY   72  59  64 W13G18    30.01F
ALBERT LEA     MOSUNNY   73  61  64 W9G16     30.01S
$$
MNZ078>079-086>088-094>096-291900-
   Southeast Minnesota

CITY           SKY/WX    TMP DP  RH WIND       PRES   REMARKS
ROCHESTER      PTSUNNY   73  62  68 W20G28    30.00S
6HR MIN TEMP:  61; 6HR MAX TEMP:  74; 6HR PCP: TRACE;

RED WING       MOSUNNY   73  57  56 NW9G18    29.95R
STANTON        MOSUNNY   75  59  57 W17G24    29.96F
DODGE CENTER   SUNNY     73  57  56 W17G24    30.00S
WINONA         MOSUNNY   75  55  50 NW14G31   29.96S
AUSTIN         MOSUNNY   73  61  64 W9G18     30.01S
PRESTON        PTSUNNY   72  58  60 W18       30.01S
$$
ABBREVIATIONS USED IN REMARKS
   TC - TEMPERATURES IN CELSIUS
  WCI - WIND CHILL INDEX
   HX - HEAT INDEX
  VSB - VISIBILITY
$$



USA.gov is the U.S. government's official web portal to all federal, state and local government web resources and services.